TimeCDT,TemperatureF,Dew PointF,Humidity,Sea Level PressureIn,VisibilityMPH,Wind Direction,Wind SpeedMPH,Gust SpeedMPH,PrecipitationIn,Events,Conditions,WindDirDegrees,DateUTC
12:15 AM,75.7,73.8,94,30.10,10.0,Calm,Calm,-,N/A,,Scattered Clouds,0,2013-06-25 05:15:00
12:35 AM,75.0,73.6,95,30.09,10.0,Calm,Calm,-,N/A,,Clear,0,2013-06-25 05:35:00
12:55 AM,75.4,73.6,94,30.09,10.0,Calm,Calm,-,N/A,,Scattered Clouds,0,2013-06-25 05:55:00
1:15 AM,74.7,73.0,95,30.09,10.0,Calm,Calm,-,N/A,,Mostly Cloudy,0,2013-06-25 06:15:00
1:35 AM,75.2,73.4,94,30.08,10.0,Calm,Calm,-,N/A,,Scattered Clouds,0,2013-06-25 06:35:00
1:55 AM,76.1,73.0,90,30.08,10.0,Calm,Calm,-,N/A,,Clear,0,2013-06-25 06:55:00
2:15 AM,74.3,72.7,95,30.08,10.0,Calm,Calm,-,N/A,,Clear,0,2013-06-25 07:15:00
2:35 AM,74.3,73.0,96,30.08,10.0,Calm,Calm,-,N/A,,Clear,0,2013-06-25 07:35:00
2:55 AM,74.1,72.7,95,30.08,10.0,Calm,Calm,-,N/A,,Clear,0,2013-06-25 07:55:00
3:15 AM,74.1,72.9,96,30.08,10.0,Calm,Calm,-,N/A,,Clear,0,2013-06-25 08:15:00
3:35 AM,73.6,72.7,97,30.07,10.0,Calm,Calm,-,N/A,,Clear,0,2013-06-25 08:35:00
3:55 AM,73.8,73.0,98,30.07,10.0,Calm,Calm,-,N/A,,Clear,0,2013-06-25 08:55:00
4:15 AM,73.0,72.1,97,30.07,10.0,Calm,Calm,-,N/A,,Clear,0,2013-06-25 09:15:00
4:35 AM,72.9,72.0,97,30.07,10.0,Calm,Calm,-,N/A,,Clear,0,2013-06-25 09:35:00
4:55 AM,73.4,72.7,98,30.07,10.0,Calm,Calm,-,N/A,,Clear,0,2013-06-25 09:55:00
5:15 AM,73.0,72.3,98,30.07,10.0,Calm,Calm,-,N/A,,Clear,0,2013-06-25 10:15:00
5:35 AM,73.0,72.1,97,30.08,7.0,Calm,Calm,-,N/A,,Clear,0,2013-06-25 10:35:00
5:55 AM,72.7,72.1,98,30.08,10.0,Calm,Calm,-,N/A,,Clear,0,2013-06-25 10:55:00
6:15 AM,72.7,72.0,98,30.08,10.0,Calm,Calm,-,N/A,,Clear,0,2013-06-25 11:15:00
6:35 AM,72.7,71.6,96,30.08,10.0,Calm,Calm,-,N/A,,Clear,0,2013-06-25 11:35:00
6:55 AM,74.5,73.4,96,30.08,10.0,Calm,Calm,-,N/A,,Clear,0,2013-06-25 11:55:00
7:15 AM,76.5,74.3,93,30.09,10.0,Calm,Calm,-,N/A,,Clear,0,2013-06-25 12:15:00
7:35 AM,78.3,74.7,89,30.09,10.0,SSE,3.5,-,N/A,,Clear,160,2013-06-25 12:35:00
7:55 AM,79.7,75.0,86,30.09,10.0,Calm,Calm,-,N/A,,Clear,0,2013-06-25 12:55:00
8:15 AM,81.1,75.0,82,30.09,10.0,South,3.5,-,N/A,,Clear,170,2013-06-25 13:15:00
8:35 AM,82.0,75.4,80,30.09,10.0,South,3.5,-,N/A,,Clear,180,2013-06-25 13:35:00
8:55 AM,83.5,75.0,76,30.09,10.0,South,4.6,-,N/A,,Clear,170,2013-06-25 13:55:00
9:15 AM,84.6,73.8,70,30.09,10.0,SSE,4.6,-,N/A,,Clear,160,2013-06-25 14:15:00
9:35 AM,84.6,73.6,69,30.09,10.0,South,6.9,-,N/A,,Scattered Clouds,190,2013-06-25 14:35:00
9:55 AM,85.6,74.3,69,30.08,10.0,South,6.9,-,N/A,,Scattered Clouds,170,2013-06-25 14:55:00
10:15 AM,86.5,74.5,67,30.08,10.0,South,9.2,-,N/A,,Scattered Clouds,180,2013-06-25 15:15:00
10:35 AM,87.3,73.8,64,30.08,10.0,SE,5.8,-,N/A,,Scattered Clouds,140,2013-06-25 15:35:00
10:55 AM,86.9,73.8,65,30.08,10.0,South,6.9,-,N/A,,Scattered Clouds,170,2013-06-25 15:55:00
11:15 AM,88.2,73.6,62,30.08,10.0,South,8.1,-,N/A,,Scattered Clouds,190,2013-06-25 16:15:00
11:35 AM,88.7,71.4,56,30.08,10.0,SSE,6.9,-,N/A,,Scattered Clouds,150,2013-06-25 16:35:00
11:55 AM,90.0,71.1,54,30.08,10.0,SSE,8.1,-,N/A,,Clear,160,2013-06-25 16:55:00
12:15 PM,89.4,69.3,51,30.08,10.0,South,8.1,-,N/A,,Scattered Clouds,180,2013-06-25 17:15:00
12:35 PM,90.0,68.9,50,30.08,10.0,South,5.8,-,N/A,,Scattered Clouds,170,2013-06-25 17:35:00
12:55 PM,90.5,70.2,51,30.08,10.0,South,6.9,-,N/A,,Scattered Clouds,190,2013-06-25 17:55:00
1:15 PM,90.7,69.4,50,30.07,10.0,SSE,10.4,-,N/A,,Mostly Cloudy,160,2013-06-25 18:15:00
1:35 PM,91.8,67.5,45,30.07,10.0,SSE,5.8,-,N/A,,Scattered Clouds,160,2013-06-25 18:35:00
1:55 PM,91.9,67.6,45,30.06,10.0,SW,6.9,-,N/A,,Clear,220,2013-06-25 18:55:00
2:15 PM,92.5,66.7,43,30.05,10.0,South,9.2,-,N/A,,Clear,170,2013-06-25 19:15:00
2:35 PM,91.6,65.5,42,30.05,10.0,SSE,4.6,-,N/A,,Clear,150,2013-06-25 19:35:00
2:55 PM,91.9,66.4,43,30.04,10.0,SSW,4.6,-,N/A,,Clear,200,2013-06-25 19:55:00
3:15 PM,92.1,67.1,44,30.03,10.0,SE,4.6,-,N/A,,Clear,140,2013-06-25 20:15:00
3:35 PM,92.5,68.5,45,30.03,10.0,South,5.8,-,N/A,,Scattered Clouds,170,2013-06-25 20:35:00
3:55 PM,90.9,69.3,49,30.03,10.0,SSW,5.8,-,N/A,,Scattered Clouds,200,2013-06-25 20:55:00
4:15 PM,90.1,70.7,53,30.03,10.0,Calm,Calm,-,N/A,,Scattered Clouds,0,2013-06-25 21:15:00
4:35 PM,89.6,72.5,57,30.03,10.0,Calm,Calm,-,N/A,,Clear,0,2013-06-25 21:35:00
4:55 PM,89.6,73.8,59,30.03,10.0,Calm,Calm,-,N/A,,Scattered Clouds,0,2013-06-25 21:55:00
5:15 PM,88.7,75.0,64,30.01,10.0,Calm,Calm,-,N/A,,Clear,0,2013-06-25 22:15:00
5:35 PM,87.8,75.4,66,30.01,10.0,SSW,5.8,-,N/A,,Mostly Cloudy,200,2013-06-25 22:35:00
5:55 PM,88.3,73.8,62,30.00,10.0,SW,3.5,-,N/A,,Overcast,230,2013-06-25 22:55:00
6:15 PM,88.0,72.7,60,30.00,10.0,SW,3.5,-,N/A,,Mostly Cloudy,230,2013-06-25 23:15:00
6:35 PM,88.0,73.0,61,30.00,10.0,SW,6.9,-,N/A,,Scattered Clouds,230,2013-06-25 23:35:00
6:55 PM,87.4,73.6,63,30.00,10.0,SW,4.6,-,N/A,,Clear,230,2013-06-25 23:55:00
7:15 PM,86.9,72.7,62,30.00,10.0,SW,4.6,-,N/A,,Scattered Clouds,220,2013-06-26 00:15:00
7:35 PM,86.0,72.5,64,30.00,10.0,SSW,5.8,-,N/A,,Scattered Clouds,210,2013-06-26 00:35:00
7:55 PM,85.1,71.1,63,30.00,10.0,SSW,3.5,-,N/A,,Mostly Cloudy,210,2013-06-26 00:55:00
8:15 PM,83.8,70.2,63,30.00,10.0,SSW,3.5,-,N/A,,Scattered Clouds,200,2013-06-26 01:15:00
8:35 PM,82.6,70.3,66,30.00,10.0,South,3.5,-,N/A,,Clear,190,2013-06-26 01:35:00
8:55 PM,81.5,70.7,70,30.00,10.0,Calm,Calm,-,N/A,,Clear,0,2013-06-26 01:55:00
9:15 PM,80.6,70.7,72,30.01,10.0,SSW,3.5,-,N/A,,Clear,200,2013-06-26 02:15:00
9:35 PM,80.2,70.9,73,30.01,10.0,Calm,Calm,-,N/A,,Clear,0,2013-06-26 02:35:00
9:55 PM,77.7,71.6,81,30.02,10.0,Calm,Calm,-,N/A,,Clear,0,2013-06-26 02:55:00
10:15 PM,77.2,71.8,83,30.03,10.0,Calm,Calm,-,N/A,,Clear,0,2013-06-26 03:15:00
10:35 PM,76.5,71.6,85,30.03,10.0,Calm,Calm,-,N/A,,Clear,0,2013-06-26 03:35:00
10:55 PM,76.1,71.6,86,30.03,10.0,Calm,Calm,-,N/A,,Clear,0,2013-06-26 03:55:00
11:15 PM,75.7,71.6,87,30.03,10.0,Calm,Calm,-,N/A,,Clear,0,2013-06-26 04:15:00
11:35 PM,75.2,71.6,89,30.03,10.0,Calm,Calm,-,N/A,,Clear,0,2013-06-26 04:35:00
11:55 PM,75.4,71.6,88,30.02,10.0,South,3.5,-,N/A,,Clear,190,2013-06-26 04:55:00